TimeCDT,TemperatureF,Dew PointF,Humidity,Sea Level PressureIn,VisibilityMPH,Wind Direction,Wind SpeedMPH,Gust SpeedMPH,PrecipitationIn,Events,Conditions,WindDirDegrees,DateUTC
12:15 AM,37.4,23.0,56,30.00,10.0,West,12.7,-,N/A,,Overcast,280,2013-03-12 05:15:00
12:35 AM,35.6,23.0,60,30.00,10.0,West,15.0,19.6,N/A,,Overcast,280,2013-03-12 05:35:00
12:55 AM,35.6,23.0,60,30.00,10.0,WNW,11.5,-,N/A,,Overcast,290,2013-03-12 05:55:00
1:15 AM,35.6,23.0,60,30.00,10.0,WNW,12.7,18.4,N/A,,Overcast,290,2013-03-12 06:15:00
1:55 AM,35.6,21.2,56,30.00,10.0,West,9.2,-,N/A,,Overcast,270,2013-03-12 06:55:00
2:15 AM,35.6,21.2,56,30.00,10.0,West,9.2,-,N/A,,Overcast,270,2013-03-12 07:15:00
2:35 AM,35.6,21.2,56,30.00,10.0,West,5.8,-,N/A,,Overcast,270,2013-03-12 07:35:00
2:55 AM,35.6,21.2,56,30.00,10.0,West,6.9,-,N/A,,Overcast,260,2013-03-12 07:55:00
3:35 AM,35.6,21.2,56,30.01,10.0,West,9.2,-,N/A,,Overcast,280,2013-03-12 08:35:00
3:55 AM,35.6,21.2,56,30.00,10.0,West,4.6,-,N/A,,Overcast,270,2013-03-12 08:55:00
4:15 AM,35.6,21.2,56,30.00,10.0,West,6.9,-,N/A,,Overcast,270,2013-03-12 09:15:00
5:15 AM,33.8,19.4,56,30.02,10.0,West,5.8,-,N/A,,Partly Cloudy,260,2013-03-12 10:15:00
5:35 AM,32.0,19.4,60,30.03,10.0,WSW,4.6,-,N/A,,Clear,250,2013-03-12 10:35:00
5:55 AM,30.2,19.4,64,30.03,10.0,West,4.6,-,N/A,,Clear,260,2013-03-12 10:55:00
6:15 AM,30.2,19.4,64,30.04,10.0,WSW,5.8,-,N/A,,Clear,240,2013-03-12 11:15:00
6:35 AM,30.2,19.4,64,30.04,10.0,WSW,4.6,-,N/A,,Clear,250,2013-03-12 11:35:00
6:55 AM,30.2,19.4,64,30.05,10.0,WSW,4.6,-,N/A,,Clear,250,2013-03-12 11:55:00
7:15 AM,30.2,19.4,64,30.05,10.0,WSW,3.5,-,N/A,,Clear,250,2013-03-12 12:15:00
7:35 AM,30.2,19.4,64,30.05,10.0,Calm,Calm,-,N/A,,Clear,0,2013-03-12 12:35:00
7:55 AM,32.0,21.2,64,30.06,10.0,WSW,3.5,-,N/A,,Clear,250,2013-03-12 12:55:00
8:15 AM,33.8,21.2,60,30.07,10.0,West,8.1,-,N/A,,Clear,280,2013-03-12 13:15:00
8:55 AM,35.6,21.2,56,30.09,10.0,WNW,9.2,-,N/A,,Clear,300,2013-03-12 13:55:00
9:15 AM,37.4,21.2,52,30.09,10.0,West,8.1,-,N/A,,Clear,280,2013-03-12 14:15:00
9:35 AM,37.4,21.2,52,30.10,10.0,WNW,9.2,-,N/A,,Clear,290,2013-03-12 14:35:00
9:55 AM,37.4,23.0,56,30.10,10.0,WNW,9.2,-,N/A,,Clear,300,2013-03-12 14:55:00
10:35 AM,39.2,23.0,52,30.11,10.0,NW,9.2,-,N/A,,Clear,310,2013-03-12 15:35:00
10:55 AM,39.2,24.8,56,30.11,10.0,West,5.8,-,N/A,,Clear,280,2013-03-12 15:55:00
11:15 AM,42.8,24.8,49,30.12,10.0,West,8.1,-,N/A,,Clear,270,2013-03-12 16:15:00
11:35 AM,42.8,24.8,49,30.12,10.0,West,9.2,17.3,N/A,,Clear,270,2013-03-12 16:35:00
11:55 AM,42.8,24.8,49,30.12,10.0,West,10.4,-,N/A,,Clear,280,2013-03-12 16:55:00
12:15 PM,44.6,24.8,46,30.11,10.0,West,8.1,16.1,N/A,,Clear,260,2013-03-12 17:15:00
12:35 PM,44.6,26.6,49,30.11,10.0,West,6.9,-,N/A,,Clear,280,2013-03-12 17:35:00
12:55 PM,44.6,26.6,49,30.11,10.0,West,13.8,17.3,N/A,,Clear,270,2013-03-12 17:55:00
1:15 PM,46.4,26.6,46,30.11,10.0,West,12.7,-,N/A,,Clear,280,2013-03-12 18:15:00
1:35 PM,46.4,26.6,46,30.10,10.0,West,12.7,-,N/A,,Clear,260,2013-03-12 18:35:00
1:55 PM,46.4,26.6,46,30.09,10.0,West,12.7,16.1,N/A,,Clear,280,2013-03-12 18:55:00
2:15 PM,46.4,26.6,46,30.09,10.0,West,11.5,-,N/A,,Clear,280,2013-03-12 19:15:00
2:35 PM,46.4,24.8,43,30.09,10.0,West,17.3,-,N/A,,Clear,280,2013-03-12 19:35:00
2:55 PM,46.4,26.6,46,30.09,10.0,West,15.0,18.4,N/A,,Clear,260,2013-03-12 19:55:00
3:15 PM,48.2,26.6,43,30.08,10.0,West,12.7,-,N/A,,Clear,280,2013-03-12 20:15:00
3:35 PM,48.2,24.8,40,30.08,10.0,West,11.5,19.6,N/A,,Clear,260,2013-03-12 20:35:00
3:55 PM,48.2,26.6,43,30.08,10.0,West,11.5,-,N/A,,Clear,260,2013-03-12 20:55:00
4:15 PM,48.2,24.8,40,30.07,10.0,WNW,12.7,-,N/A,,Clear,290,2013-03-12 21:15:00
4:35 PM,48.2,26.6,43,30.07,10.0,West,9.2,18.4,N/A,,Clear,270,2013-03-12 21:35:00
4:55 PM,48.2,26.6,43,30.07,10.0,West,11.5,-,N/A,,Clear,270,2013-03-12 21:55:00
5:15 PM,48.2,24.8,40,30.07,10.0,West,12.7,20.7,N/A,,Clear,260,2013-03-12 22:15:00
5:35 PM,48.2,24.8,40,30.08,10.0,West,11.5,18.4,N/A,,Clear,270,2013-03-12 22:35:00
5:55 PM,46.4,24.8,43,30.09,10.0,West,12.7,20.7,N/A,,Clear,280,2013-03-12 22:55:00
6:15 PM,46.4,24.8,43,30.08,10.0,West,11.5,-,N/A,,Partly Cloudy,270,2013-03-12 23:15:00
6:35 PM,46.4,24.8,43,30.08,10.0,West,6.9,-,N/A,,Mostly Cloudy,270,2013-03-12 23:35:00
6:55 PM,44.6,26.6,49,30.08,10.0,WNW,3.5,-,N/A,,Mostly Cloudy,290,2013-03-12 23:55:00
7:15 PM,42.8,24.8,49,30.08,10.0,Calm,Calm,-,N/A,,Mostly Cloudy,0,2013-03-13 00:15:00
7:55 PM,41.0,24.8,53,30.08,10.0,Calm,Calm,-,N/A,,Mostly Cloudy,0,2013-03-13 00:55:00
8:15 PM,41.0,24.8,53,30.09,10.0,SW,6.9,-,N/A,,Mostly Cloudy,230,2013-03-13 01:15:00
8:35 PM,42.8,24.8,49,30.10,10.0,West,9.2,-,N/A,,Scattered Clouds,280,2013-03-13 01:35:00
8:55 PM,42.8,24.8,49,30.11,10.0,West,12.7,-,N/A,,Mostly Cloudy,280,2013-03-13 01:55:00
9:15 PM,42.8,24.8,49,30.12,10.0,NW,9.2,-,N/A,,Scattered Clouds,310,2013-03-13 02:15:00
9:35 PM,42.8,24.8,49,30.12,10.0,WNW,8.1,-,N/A,,Mostly Cloudy,300,2013-03-13 02:35:00
9:55 PM,42.8,24.8,49,30.13,10.0,WNW,8.1,-,N/A,,Mostly Cloudy,300,2013-03-13 02:55:00
10:15 PM,42.8,24.8,49,30.14,10.0,WNW,10.4,-,N/A,,Mostly Cloudy,300,2013-03-13 03:15:00
10:35 PM,41.0,24.8,53,30.15,10.0,NW,17.3,20.7,N/A,,Scattered Clouds,310,2013-03-13 03:35:00
10:55 PM,41.0,23.0,49,30.15,10.0,WNW,13.8,20.7,N/A,,Scattered Clouds,300,2013-03-13 03:55:00
11:15 PM,39.2,23.0,52,30.16,10.0,NW,12.7,20.7,N/A,,Scattered Clouds,310,2013-03-13 04:15:00
11:35 PM,39.2,23.0,52,30.16,10.0,WNW,12.7,-,N/A,,Mostly Cloudy,290,2013-03-13 04:35:00
11:55 PM,39.2,21.2,49,30.16,10.0,WNW,15.0,25.3,N/A,,Overcast,300,2013-03-13 04:55:00